Home   Weather   Częstochowa   Past weeks
Flag for Poland

Past Weather in Częstochowa, Poland — Yesterday and Last 2 Weeks

Now
64 °F

Passing clouds.


Feels Like: 64 °F
Forecast: 78 / 60 °F
Wind: 3 mph from Northwest

Location: Katowice Airport

Current Time: Jul 23, 2019 at 3:18:47 am

Latest Report: Jul 23, 2019 at 2:30 am


Visibility: N/A

Pressure: 30.15 "Hg

Humidity: 68%

Dew Point: 54 °F

Location of CzęstochowaLocation

Past Weather in Częstochowa — Graph

°F

Częstochowa Temperature Yesterday

Maximum temperature yesterday: 79 °F (at 1:30 pm)
Minimum temperature yesterday: 54 °F (at 6:00 am)
Average temperature yesterday: 69 °F

High & Low Weather Summary for the Past Weeks

 TemperatureHumidityPressure
High82 °F (Jul 19, 1:30 pm)100% (Jul 11, 3:30 am)30.21 "Hg (Jul 11, 3:30 am)
Low41 °F (Jul 18, 5:30 am)26% (Jul 18, 4:00 pm)29.80 "Hg (Jul 13, 4:00 am)
Average62 °F64%29.95 "Hg
* Reported Jul 8 2:00 am — Jul 23 2:00 am, Częstochowa. Weather by CustomWeather, © 2019

Note: Actual official high and low records may vary slightly from our data, if they occured in-between our weather recording intervals... More about our weather records

Advertising

Częstochowa Weather History for the Previous 24 Hours

Scroll right to see more
 ConditionsComfort  
Time TempWeatherWind HumidityBarometerVisibility
2:00 am
Tue, Jul 23
64 °FClear.2 mph68%30.15 "Hg10 mi
1:30 am64 °FPassing clouds.5 mph73%30.15 "HgN/A
1:00 am63 °FClear.1 mph73%30.15 "Hg10 mi
12:30 am64 °FLight rain. Clear.3 mph68%30.15 "HgN/A
12:00 am64 °FClear.2 mph68%30.15 "Hg10 mi
11:30 pm
Mon, Jul 22
64 °FClear.1 mph68%30.15 "Hg10 mi
11:00 pm64 °FClear.1 mph64%30.15 "Hg10 mi
10:30 pm66 °FClear.1 mph68%30.15 "Hg10 mi
10:00 pm66 °FClear.2 mph64%30.15 "Hg10 mi
9:30 pm70 °FClear.2 mph50%30.15 "Hg10 mi
9:00 pm70 °FClear.6 mph53%30.15 "Hg10 mi
8:30 pm72 °FSunny.5 mph47%30.15 "Hg10 mi
8:00 pm73 °FSunny.5 mph44%30.15 "Hg10 mi
7:30 pm75 °FSunny.8 mph41%30.15 "Hg10 mi
7:00 pm77 °FSunny.10 mph39%30.15 "Hg10 mi
6:30 pm77 °FPassing clouds.10 mph39%30.15 "HgN/A
6:00 pm77 °FPassing clouds.8 mph39%30.15 "HgN/A
5:30 pm77 °FPassing clouds.10 mph42%30.15 "HgN/A
5:00 pm79 °FSunny.13 mph37%30.15 "Hg10 mi
4:30 pm79 °FPassing clouds.13 mph37%30.15 "HgN/A
4:00 pm79 °FPassing clouds.13 mph37%30.18 "HgN/A
3:30 pm79 °FPassing clouds.12 mph39%30.18 "HgN/A
3:00 pm77 °FSunny.9 mph42%30.18 "Hg10 mi
2:30 pm77 °FPassing clouds.8 mph42%30.18 "HgN/A
2:00 pm77 °FPassing clouds.8 mph42%30.18 "HgN/A
1:30 pm79 °FPassing clouds.13 mph37%30.18 "HgN/A
1:00 pm77 °FPassing clouds.6 mph42%30.21 "HgN/A
12:30 pm75 °FSunny.10 mph47%30.21 "Hg10 mi
12:00 pm75 °FPassing clouds.8 mph44%30.21 "HgN/A
11:30 am73 °FPartly sunny.7 mph47%30.21 "HgN/A
11:00 am75 °FScattered clouds.7 mph50%30.21 "HgN/A
10:30 am73 °FPassing clouds.5 mph57%30.21 "HgN/A
10:00 am72 °FPassing clouds.3 mph57%30.21 "HgN/A
9:30 am70 °FPassing clouds.3 mph69%30.21 "HgN/A
9:00 am68 °FSunny.1 mph78%30.21 "Hg10 mi
8:30 am66 °FPassing clouds.3 mph78%30.21 "HgN/A
8:00 am64 °FSunny.2 mph88%30.21 "Hg10 mi
7:30 am61 °FPassing clouds.3 mph100%30.21 "HgN/A
7:00 am59 °FSunny.2 mph100%30.21 "Hg10 mi
6:30 am57 °FFog.2 mph100%30.21 "Hg3 mi
6:00 am54 °FCool.3 mph100%30.21 "Hg1 mi
5:30 am57 °FLight fog.3 mph94%30.18 "Hg0 mi
5:00 am57 °FCool.1 mph100%30.18 "Hg1 mi
4:30 am59 °FCool.3 mph94%30.18 "Hg2 mi
4:00 am59 °FCool.2 mph100%30.18 "Hg1 mi
3:00 am59 °FCool.5 mph100%30.18 "Hg1 mi
Weather by CustomWeather, © 2019

See weather overview